www.pogodaiklimat.ru

Погода и климат >> Архив погоды >> Россия >> Чукотка >> Омолон


ПОГОДА в Омолоне

АРХИВ ПОГОДЫ в Омолоне

Время (UTC), дата Ветер
(напр.,м/с)
 
Видим.   Явления Облачность Т
(С)
Тd
(С)
f
(%)
Тe
(С)
Тes
(С)
Комфортность P
(гПа)
Po
(гПа)
Тmin
(С)
Tmax
(С)
R
(мм)
S
(см)
00 19.03 В 1
{2}
22 км снежные кристаллы 10/3 1000 м
[Sc Ac trans Cs]
-16.1 -19.5 75 -19 -17 1019.2 984.6
03 19.03 В 1
{3}
50 км {снег} 9/0
[Ac trans Ci fib]
-10.2 -14.6 70 -12 -10 1018.1 984.3
06 19.03 В 1
{3}
50 км {снег} 9/0
[Ac trans Ci fib]
-10.8 -14.4 75 -13 -13 1018.3 984.4
09 19.03 С 1
{2}
50 км 8/0
[Ci fib]
-14.6 -16.6 85 -17 -17 1019.7 985.4 -10.2 0.0
12 19.03 С 1
{4}
50 км 8/0
[Ci fib]
-18.6 -20.5 85 -21 -21 1020.8 985.8
15 19.03 штиль 0
{2}
50 км 8/0
[Ci fib]
-21.7 -24.2 80 -22 -22 1021.6 986.2
18 19.03 СЗ 1
{2}
18 км слабый снег 10/0
[Ac trans Cs]
-17.5 -19.4 85 -20 -20 1021.1 986.4
21 19.03 СЗ 1
{2}
50 км {снег} 10/0
[Ac trans Cs]
-19.6 -21.5 85 -23 -22 1022.3 987.0 -21.8 0.0 45
00 20.03 СВ 2
{2}
21 км снежные кристаллы 10/0
[Ac lent Cs]
-14.9 -19.1 70 -20 -18 1021.7 987.1
03 20.03 В 1
{3}
50 км {снег} 9/0
[Cs]
-11.6 -16.9 65 -14 -10 1020.3 986.4
06 20.03 В 1
{2}
50 км {метель, снег} 9/0
[Ac lent Cs]
-12.4 -16.7 70 -15 -14 1020.1 986.0
09 20.03 штиль 0
{2}
50 км 9/0
[Ac trans Ci fib]
-18.2 -20.1 85 -18 -18 1021.2 986.3 -11.5 0.0
12 20.03 штиль 0
{1}
50 км 9/0
[Ac trans Ci fib]
-19.0 -20.9 85 -19 -19 1021.7 986.6
15 20.03 С 1
{1}
18 км слабый снег 10/4 1000 м
[Sc Ac trans Cs]
-17.6 -19.5 85 -20 -20 1021.7 986.7
18 20.03 штиль 0
{1}
16 км слабый снег 10/5 1000 м
[Sc Ac trans Cs]
-17.0 -18.9 85 -17 -17 1021.4 986.6
21 20.03 штиль 0
{1}
17 км слабый снег 10/5 1000 м
[Sc Ac trans Cs]
-15.4 -18.1 80 -15 -15 1021.8 987.2 -19.5 0.8 46
00 21.03 СВ 1
{2}
50 км в посл. час снег 10/0
[Cs]
-12.2 -16.5 70 -14 -11 1021.8 987.6
03 21.03 СВ 1
{2}
50 км 3/0
[Ac trans Ci fib]
-8.3 -13.0 69 -10 -7 1020.9 987.3
06 21.03 В 1
{2}
50 км 4/0
[Ci fib]
-7.6 -13.1 65 -10 -9 1020.9 987.4
09 21.03 штиль 0
{2}
50 км 3/0
[Ci fib]
-17.8 -19.7 85 -18 -18 1023.3 988.3 -7.1 0.0
12 21.03 ЮВ 1
{1}
50 км 3/0
[Ci fib]
-24.0 -26.5 80 -27 -27 1024.7 988.9
15 21.03 штиль 0
{1}
50 км ясно -27.0 -30.1 75 -27 -27 1025.6 989.3
18 21.03 штиль 0
{2}
50 км 4/0
[Ci fib]
-27.6 -30.6 75 -28 -28 1026.0 989.5
21 21.03 штиль 0
{1}
50 км 10/3 300 м
[St Cs]
-25.4 -27.8 80 -25 -25 1026.5 990.4 -28.1 46
00 22.03 В 1
{2}
50 км 6/0
[Ci fib]
-19.5 -22.1 80 -22 -18 1025.5 990.3
03 22.03 В 1
{2}
50 км 3/0
[Ci fib]
-11.6 -16.9 65 -14 -10 1023.3 989.3
06 22.03 В 1
{2}
50 км 4/0
[Ci fib]
-11.2 -15.6 70 -13 -13 1022.6 988.6
09 22.03 штиль 0
{2}
50 км 3/0
[Ci fib]
-21.4 -23.3 85 -21 -21 1024.5 989.1 -10.0
12 22.03 штиль 0
{2}
50 км 3/0
[Ci fib]
-24.3 -26.8 80 -24 -24 1024.9 989.1
15 22.03 штиль 0
{2}
50 км ясно -27.5 -30.6 75 -28 -28 1025.1 988.7
18 22.03 штиль 0
{1}
50 км ясно -29.7 -32.8 74 -30 -30 1025.3 988.6
21 22.03 штиль 0
{1}
50 км 10/0
[Ac trans Ci fib]
-25.0 -28.1 75 -25 -24 1025.1 989.1 -30.0 46
00 23.03 В 1
{2}
50 км 3/0
[Ac trans]
-18.7 -23.6 65 -22 -18 1024.3 989.2
03 23.03 В 1
{2}
50 км 8/0
[Ac trans]
-12.1 -19.3 55 -14 -12 1023.0 988.8
06 23.03 В 1
{2}
50 км 6/0
[Ac trans]
-10.5 -16.8 60 -13 -12 1022.6 988.7
09 23.03 штиль 0
{2}
50 км 3/0
[Ac trans]
-20.7 -22.6 85 -21 -21 1025.1 989.6 -10.0
12 23.03 штиль 0
{3}
50 км 3/0
[Ac trans]
-26.1 -28.5 80 -26 -26 1026.6 990.4
15 23.03 штиль 0
{3}
50 км 3/0
[Ac trans]
-28.3 -31.3 75 -28 -28 1026.9 990.4
18 23.03 штиль 0
{2}
50 км 3/0
[Ci fib]
-30.7 -34.3 71 -31 -31 опасность
обморожения
1027.3 990.3
21 23.03 ЮВ 1
{2}
50 км 3/0
[Ci fib]
-26.9 -30.0 75 -31 -29 опасность
обморожения
1026.7 990.3 -31.5 46
00 24.03 В 1
{2}
50 км ясно -18.5 -22.6 70 -21 -16 1024.2 989.2
03 24.03 В 1
{2}
50 км ясно -13.1 -19.2 60 -15 -11 1021.7 987.4
06 24.03 В 1
{2}
50 км ясно -10.9 -17.1 60 -13 -12 1019.9 986.0
09 24.03 В 1
{2}
50 км ясно -21.2 -24.4 75 -24 -24 1021.1 985.8 -10.5
12 24.03 ЮВ 1
{3}
50 км ясно -25.5 -28.0 79 -29 -29 1021.5 985.6
15 24.03 штиль 0
{2}
50 км ясно -29.1 -32.2 74 -29 -29 1021.4 984.9
18 24.03 ЮВ 1
{2}
50 км ясно -30.6 -33.6 75 -35 -35 опасность
обморожения
1021.0 984.2
21 24.03 штиль 0
{2}
50 км 3/0
[Ci fib]
-25.4 -28.5 75 -25 -24 1020.4 984.5 -31.8 46
00 25.03 В 1
{2}
50 км 3/0
[Ac lent Ci fib]
-17.3 -23.2 60 -20 -16 1018.6 973.9
03 25.03 В 1
{2}
50 км 3/0
[Ac lent Ci fib]
-10.0 -23.2 33 -12 -12 1018.6 973.9
06 25.03 В 2
{3}
50 км 8/3 1000 м
[Sc Ac trans Ci sp]
-7.3 -15.5 52 -11 -11 1015.6 982.3
09 25.03 В 1
{3}
50 км 9/6 1000 м
[Sc Ac trans]
-12.7 -17.0 70 -15 -15 1017.1 983.0 -6.7
12 25.03 ЮВ 1
{2}
50 км 4/0
[Ci fib]
-17.7 -19.6 85 -21 -21 1018.2 983.4
15 25.03 штиль 0
{2}
50 км 6/0
[Ci fib]
-23.2 -25.7 80 -23 -23 1019.2 983.6
18 25.03 штиль 0
{2}
50 км 3/1 1000 м
[Sc Ci fib]
-27.8 -30.9 75 -28 -28 1020.6 984.3
21 25.03 СВ 1
{1}
50 км 4/1 1000 м
[Sc Ci fib]
-24.0 -27.2 75 -27 -26 1020.9 985.2 -29.8 45

 

Местоположение метеостанции Омолон (Чукотка, Россия): широта 65.23 долгота 160.50 высота над уровнем моря 260 м.

В архиве по умолчанию представлена погода в Омолоне за последнюю неделю. Архивные данные за месяц целиком и за предыдущие месяцы, начиная с января 2011 года, Вы можете получить, выбрав интересующий диапазон дат из раскрывающегося списка и нажав кнопку "Ввод!".

Внимание! Время в таблицах - всемирное. Для получения местного времени необходимо прибавить поправку, которая в Омолоне равна 12 ч.

Смотрите также архив погоды в соседних городах и на ближайших метеорологических станциях:

Погода в Кегали (Магаданская область, Россия) (112 км)
Погода в Верхне-Пенжино (Камчатский край, Россия) (209 км)
Погода в Баимке (Чукотка, Россия) (222 км)
Погода в Лабазной (Магаданская область, Россия) (235 км)
Погода в Коркодоне (Магаданская область, Россия) (315 км)
Погода в Константиновской (Чукотка, Россия) (326 км)
Погода в Балыгычане (Магаданская область, Россия) (339 км)
Погода в Анюйске (Чукотка, Россия) (350 км)
Погода на Островном (Чукотка, Россия) (358 км)
Погода в Эвенске (Магаданская область, Россия) (374 км)

Пояснения к столбцам:

Ветер - указаны скорость ветра в м/с - средняя за 10 мин, порывы в срок и между сроками (в фигурных скобках) и направление, откуда дует ветер: С - северный, СВ - северо-восточный, В - восточный, ЮВ - юго-восточный, Ю - южный, ЮЗ - юго-западный, З - западный, СЗ - северо-западный.
Видимость - горизонтальная дальность видимости в метрах или километрах. При видимости от 1 до 10 км при отсутствии осадков обычно наблюдается дымка, при ухудшении видимости до 1 км и менее - туман. В сухую погоду видимость может ухудшаться дымом, пылью или мглою.
Явления - указаны атмосферные явления, наблюдавшиеся в срок или в последний час перед сроком; фигурными скобками обозначены явления, наблюдавшиеся между сроками (за 1-3 часа до срока); квадратными скобками обозначены град или гололедные отложения с указанием их диаметра в мм.
Облачность - указаны через наклонную черту общая и нижняя облачность в баллах и высота нижней границы облаков в метрах; квадратными скобками обозначены формы облаков: Ci - перистые, Cs - перисто-слоистые, Cc - перисто-кучевые, Ac - высококучевые, As - высокослоистые, Sc - слоисто-кучевые, Ns - слоисто-дождевые, Cu - кучевые, Cb - кучево-дождевые. Подробнее классификацию облаков см. в Атласе облаков (PDF).
T - Температура воздуха - температура, измеренная на высоте 2 м над землей.
Td - Температура точки росы - температура, при понижении до которой содержащийся в воздухе водяной пар достигнет насыщения.
f - Относительная влажность воздуха - влажноcть воздуха, измеренная на высоте 2 м над землей.
Te - Эффективная температура - температура, которую ощущает одетый по сезону человек в тени. Характеристика душности погоды. При расчете учитывается влияние влажности воздуха и скорости ветра на теплоощущения человека.
Tes - Эффективная температура на солнце - температура, которую ощущает человек, с поправкой на солнечный нагрев. Характеристика знойности погоды. Зависит от высоты солнца над горизонтом, облачности и скорости ветра. Ночью, в пасмурную погоду, а также при ветре 12 м/с и более поправка равна нулю.
P - Атмосферное давление - приведенное к уровню моря атмосферное давление.
Po - Атмосферное давление - измеренное на уровне метеостанции атмосферное давление.
Tmin - Минимальная температура - минимум температуры воздуха на высоте 2 м над землей.
Tmax - Максимальная температура - максимум температуры воздуха на высоте 2 м над землей.
R - Количество осадков - Количество выпавших осадков, мм. При наведении курсора мыши на число - период времени, за который выпало указанное количество осадков.
S - Снежный покров - Высота снежного покрова, см. При наведении курсора мыши на число - состояние снежного покрова и степень покрытия местности в баллах.